Weather observations for the past three days for
Copper Harbor
Imperial (Metric)
Date Time (edt) Wind (mph) Vis. (mi.) Weather Sky Cond. Temperature (ºF) Relative Humidity Wind Chill (°F) Heat Index (°F) Pressure Precipitation (in)
Air Dwpt 6 hour altimeter (in) sea level (mb) 1 hr 3 hr 6 hr
Max. Min.
12 12:51 N 13 G 17 0.00 NULL NULL 75 64 69% 77 30.04 1016.7
12 11:51 E 3 0.00 NULL NULL 73.9 61 64% 30.04 1016.6
12 10:51 Vrbl 3 0.00 NULL NULL 75.9 63 64% 78 30.03 1016.2
12 09:51 SW 8 0.00 NULL NULL 71.1 61 71% 30.03 1016.3
12 08:51 Vrbl 6 0.00 NULL NULL 71.1 59 66% 30.04 1016.5
12 07:51 W 6 0.00 NULL NULL 66.9 57.9 66.9 60.1 73% 30.04 1016.5
12 06:51 W 7 0.00 NULL NULL 64.9 57.9 78% 30.04 1016.5
12 05:51 W 5 0.00 NULL NULL 63 57 81% 30.03 1016.2
12 04:51 Vrbl 3 0.00 NULL NULL 63 55.9 78% 30.02 1016.1
12 03:51 SW 9 G 20 0.00 NULL NULL 61 57 87% 30.03 1016.4
12 02:51 SW 8 0.00 NULL NULL 61 57 87% 30.04 1016.9
12 01:51 W 8 0.00 NULL NULL 61 57 70 61 87% 30.05 1017.1
12 00:51 SW 9 G 18 0.00 NULL NULL 62.1 57 84% 30.05 1017.0
11 23:51 SW 9 G 20 0.00 NULL NULL 62.1 57 84% 30.04 1017.0
11 22:51 SW 9 G 17 0.00 NULL NULL 62.1 57 84% 30.05 1017.0
11 21:51 SW 7 0.00 NULL NULL 63 57 81% 30.05 1017.2
11 20:51 Vrbl 6 0.00 NULL NULL 66.9 57 71% 30.06 1017.5
11 19:51 Vrbl 3 0.00 NULL NULL 70 57 73.9 66.9 64% 30.07 1017.7
11 18:51 Vrbl 5 0.00 NULL NULL 73 55.9 55% 30.07 1018.0
11 17:51 SW 5 0.00 NULL NULL 73.9 59 60% 30.08 1018.0
11 16:51 E 3 0.00 NULL NULL 73 57.9 59% 30.08 1018.1
11 15:51 Calm 0.00 NULL NULL 73 60.1 64% 30.09 1018.6
11 14:51 Vrbl 3 0.00 NULL NULL 70 61 73% 30.1 1018.8
11 13:51 E 5 0.00 NULL NULL 68 61 68 61 78% 30.11 1019.3
11 12:51 NE 3 0.00 NULL NULL 66.9 61 81% 30.12 1019.5
11 11:51 NE 3 0.00 NULL NULL 64.9 59 81% 30.12 1019.8
11 10:51 NE 3 0.00 NULL NULL 66 60.1 81% 30.12 1019.7
11 09:51 NE 3 0.00 NULL NULL 64.9 59 81% 30.11 1019.2
11 08:51 NE 3 0.00 NULL NULL 64 57.9 81% 30.11 1019.1
11 07:51 Calm 0.00 NULL NULL 61 57 61 54 87% 30.1 1018.9
11 06:51 SW 5 0.00 NULL NULL 55 53.1 93% 30.08 1018.5
11 05:51 W 5 0.00 NULL NULL 55 53.1 93% 30.08 1018.4
11 04:51 NW 3 0.00 NULL NULL 55 53.1 93% 30.08 1018.3
11 03:51 W 6 0.00 NULL NULL 55 53.1 93% 30.06 1017.9
11 02:51 SW 3 0.00 NULL NULL 55 54 96% 30.06 1017.8
11 01:51 W 3 0.00 NULL NULL 55.9 54 66 55.9 93% 30.06 1017.8
11 00:51 Calm 0.00 NULL NULL 57.9 55 90% 30.06 1017.9
10 23:51 Calm 0.00 NULL NULL 57.9 55.9 93% 30.06 1017.6
10 22:51 Calm 0.00 NULL NULL 60.1 55.9 86% 30.04 1016.9
10 21:51 Calm 0.00 NULL NULL 62.1 57 84% 30.02 1016.4
10 20:51 N 5 0.00 NULL NULL 64 57 78% 30.02 1016.3
10 19:51 N 5 0.00 NULL NULL 64.9 57 66 62.1 76% 30.02 1016.1
10 18:51 N 3 0.00 NULL NULL 64.9 57 76% 30.01 1016.1
10 17:51 N 7 0.00 NULL NULL 64.9 57 76% 30.02 1016.2
10 16:51 N 7 0.00 NULL NULL 63 55.9 78% 30.02 1016.4
10 15:51 N 5 0.00 NULL NULL 64 55.9 75% 30.02 1016.3
10 14:51 Vrbl 3 0.00 NULL NULL 63 55.9 78% 30.02 1016.4
10 13:51 NE 3 0.00 NULL NULL 63 55.9 66 60.1 78% 30.02 1016.1
10 12:51 Calm 0.00 NULL NULL 62.1 55.9 80% 30.01 1015.9
10 11:51 NE 3 0.00 NULL NULL 62.1 57 84% 29.99 1015.3
10 10:51 E 6 0.00 NULL NULL 64.9 59 81% 29.98 1014.8
10 09:51 E 3 0.00 NULL NULL 63 57 81% 29.97 1014.3
10 08:51 N 5 0.00 NULL NULL 62.1 57 84% 29.96 1014.1
10 07:51 N 5 0.00 NULL NULL 62.1 57 62.1 57.9 84% 29.93 1013.0
10 06:51 N 7 0.00 NULL NULL 59 55.9 90% 29.93 1013.0
10 05:51 Calm 0.00 NULL NULL 57.9 55.9 93% 29.9 1012.2
10 04:51 W 5 0.00 NULL NULL 60.1 57 90% 29.9 1012.2
10 03:51 SW 7 0.00 NULL NULL 60.1 55.9 86% 29.9 1012.0
10 02:51 SW 3 0.00 NULL NULL 59 57 93% 29.91 1012.6
10 01:51 W 5 0.00 NULL NULL 62.1 57.9 70 61 86% 29.92 1012.8
10 00:51 W 7 0.00 NULL NULL 61 57.9 90% 29.92 1012.9
09 23:51 W 5 0.00 NULL NULL 62.1 59 90% 29.92 1012.6
09 22:51 SW 5 0.00 NULL NULL 63 60.1 90% 29.91 1012.5
09 21:51 Calm 0.00 NULL NULL 66 61 84% 29.91 1012.4
09 20:51 Calm 0.00 NULL NULL 68 59 73% 29.91 1012.3
09 19:51 N 9 0.00 NULL NULL 66.9 60.1 71.1 66 79% 29.91 1012.4
09 18:51 N 8 0.00 NULL NULL 68 61 78% 29.9 1011.9
09 17:51 N 7 0.00 NULL NULL 69.1 61 76% 29.91 1012.5
09 16:51 N 7 0.00 NULL NULL 66.9 60.1 79% 29.91 1012.5
09 15:51 N 10 0.00 NULL NULL 66.9 61 81% 29.92 1012.8
09 14:51 N 12 0.00 NULL NULL 68 61 78% 29.91 1012.6
09 13:51 N 12 0.00 NULL NULL 66 60.1 68 64 81% 29.91 1012.6
Date Time (edt) Wind (mph) Vis. (mi.) Weather Sky Cond. Air Dwpt Max. Min. Relative Humidity Wind Chill (°F) Heat Index (°F) altimeter (in) sea level (mb) 1 hr 3 hr 6 hr
6 hour
Temperature (ºF) Pressure Precipitation (in)